Orbital Elements at Epoch 2459200.5 (2020-Dec-17.0) TDB
Reference: JPL 21 (heliocentric ecliptic J2000)
Element | Value | Uncertainty (1-sigma) | Units |
e | .2129563942498617 | 4.8905e-08 | |
a | 3.004940973374941 | 1.6922e-08 | au |
q | 2.365019578751344 | 1.4685e-07 | au |
i | 2.789906400147957 | 4.775e-06 | deg |
node | 319.5285660440184 | 0.00010527 | deg |
peri | 41.09745950263482 | 0.00010579 | deg |
M | 309.2782888003759 | 1.343e-05 | deg |
tp | 2459468.567238990696 (2021-Sep-11.06723899) | 7.2339e-05 | TDB |
period | 1902.621259303367 5.21 | 1.6072e-05 4.4e-08 | d yr |
n | .1892126445238039 | 1.5983e-09 | deg/d |
Q | 3.644862367998538 | 2.0526e-08 | au |
|
| | Orbit Determination Parameters
Additional Information
|